Change the Weather History Date:

Wednesday, January 8, 2014

  Actual Average (KTVC) Record (KTVC)
Temperature  
Mean Temperature 11 °F 22 °F  
Max Temperature 14 °F 28 °F 49 °F (2008)
Min Temperature 8 °F 16 °F -18 °F (1968)
Degree Days  
Heating Degree Days 54 43  
Month to date heating degree days 341  
Since 1 July heating degree days 3149  
Moisture  
Dew Point 6 °F    
Average Humidity 79    
Maximum Humidity 83    
Minimum Humidity 74    
Precipitation  
Precipitation 0.00 in 0.09 in 0.98 in (1998)
Month to date precipitation 0.77  
Year to date precipitation 0.77  
Sea Level Pressure  
Sea Level Pressure 30.31 in    
Wind  
Wind Speed 8 mph (West)    
Max Wind Speed 14 mph    
Max Gust Speed 21 mph    
Visibility 5 miles    
Events Snow    
T = Trace of Precipitation, MM = Missing Value Source: NWS Daily Summary

Daily Weather History Graph

Daily Weather History Graph

Search for Another Location

Airport or City:

Trip Planner

Search our weather history database for the weather conditions in past years. The results will help you decide how hot, cold, wet, or windy it might be!

Date:

Astronomy

Jan. 08, 2014 Rise Set
Actual Time 8:21 AM EST 5:22 PM EST
Civil Twilight 7:48 AM EST 5:55 PM EST
Nautical Twilight 7:11 AM EST 6:31 PM EST
Astronomical Twilight 6:36 AM EST 7:07 PM EST
Moon 12:22 PM EST (1/8) 1:17 AM EST (1/8)
Length of Visible Light 10h 07m
Length of Day
9h 01m
First Quarter, 56% of the Moon is Illuminated
Jan 8
First Quarter
Jan 15
Full
Jan 24
Last Quarter
Jan 30
New
Feb 6
First Quarter

Hourly Weather History & Observations

Time (EST) Temp. Windchill Dew Point Humidity Pressure Visibility Wind Dir Wind Speed Gust Speed Precip Events Conditions
12:11 AM 9.5 °F -1.5 °F 5.2 °F 83% 30.18 in 1.8 mi West 6.9 mph - N/A Snow Light Snow
12:31 AM 9.5 °F -6.6 °F 4.6 °F 81% 30.19 in 2.5 mi West 13.8 mph 17.3 mph N/A Snow Light Snow
12:51 AM 9.3 °F -2.8 °F 4.1 °F 79% 30.19 in 4.0 mi West 8.1 mph 19.6 mph N/A Snow Light Snow
1:14 AM 9.0 °F -5.9 °F 4.1 °F 81% 30.19 in 2.0 mi West 11.5 mph 20.7 mph N/A Snow Light Snow
1:34 AM 8.8 °F -6.8 °F 4.1 °F 81% 30.20 in 2.5 mi West 12.7 mph 19.6 mph N/A Snow Light Snow
1:54 AM 8.6 °F -5.5 °F 4.1 °F 82% 30.20 in 2.5 mi West 10.4 mph 17.3 mph N/A Snow Light Snow
2:14 AM 8.6 °F -6.3 °F 3.9 °F 81% 30.20 in 2.5 mi West 11.5 mph 19.6 mph N/A Snow Light Snow
2:34 AM 8.6 °F -6.3 °F 3.9 °F 81% 30.21 in 3.0 mi WNW 11.5 mph 17.3 mph N/A Snow Light Snow
2:54 AM 8.6 °F -4.7 °F 4.1 °F 82% 30.22 in 3.0 mi West 9.2 mph 20.7 mph N/A Snow Light Snow
3:14 AM 8.6 °F -4.7 °F 4.1 °F 82% 30.22 in 3.0 mi West 9.2 mph - N/A Snow Light Snow
3:35 AM 8.4 °F -3.9 °F 3.7 °F 81% 30.22 in 3.0 mi West 8.1 mph - N/A Snow Light Snow
3:55 AM 8.4 °F -5.7 °F 4.1 °F 83% 30.22 in 2.5 mi West 10.4 mph 16.1 mph N/A Snow Light Snow
4:15 AM 8.2 °F -3.0 °F 3.7 °F 82% 30.22 in 3.0 mi West 6.9 mph - N/A Snow Light Snow
4:35 AM 8.4 °F -3.9 °F 3.7 °F 81% 30.23 in 2.5 mi West 8.1 mph 16.1 mph N/A Snow Light Snow
4:55 AM 8.6 °F -4.7 °F 4.1 °F 82% 30.23 in 2.0 mi West 9.2 mph - N/A Snow Light Snow
5:15 AM 8.4 °F -5.7 °F 4.1 °F 83% 30.23 in 2.5 mi West 10.4 mph 17.3 mph N/A Snow Light Snow
5:35 AM 8.4 °F -6.5 °F 4.1 °F 83% 30.23 in 2.5 mi West 11.5 mph - N/A Snow Light Snow
5:55 AM 8.6 °F -4.7 °F 4.1 °F 82% 30.24 in 3.0 mi West 9.2 mph - N/A Snow Light Snow
6:16 AM 8.4 °F -3.9 °F 3.9 °F 82% 30.24 in 3.0 mi West 8.1 mph - N/A Snow Light Snow
6:36 AM 8.2 °F -4.1 °F 3.2 °F 80% 30.25 in 5.0 mi West 8.1 mph 17.3 mph N/A Snow Light Snow
6:56 AM 8.2 °F -3.0 °F 3.0 °F 79% 30.25 in 3.0 mi West 6.9 mph - N/A Snow Light Snow
7:16 AM 8.4 °F -1.6 °F 3.2 °F 79% 30.25 in 5.0 mi West 5.8 mph - N/A Snow Light Snow
7:31 AM 8.6 °F 0.1 °F 3.4 °F 79% 30.26 in 10.0 mi West 4.6 mph - N/A Snow Light Snow
7:51 AM 8.6 °F -4.7 °F 4.1 °F 82% 30.26 in 7.0 mi WSW 9.2 mph - N/A Snow Light Snow
8:11 AM 9.0 °F 0.6 °F 4.8 °F 83% 30.26 in 5.0 mi West 4.6 mph - N/A Snow Light Snow
8:32 AM 9.1 °F -0.7 °F 5.0 °F 83% 30.27 in 4.0 mi West 5.8 mph - N/A Snow Light Snow
8:52 AM 9.3 °F 1.0 °F 5.0 °F 83% 30.28 in 3.0 mi WSW 4.6 mph - N/A Snow Light Snow
9:12 AM 10.0 °F 0.4 °F 5.7 °F 83% 30.28 in 3.0 mi West 5.8 mph - N/A Snow Light Snow
9:32 AM 10.0 °F -0.9 °F 5.2 °F 81% 30.29 in 7.0 mi WSW 6.9 mph - N/A Snow Light Snow
9:52 AM 10.4 °F -0.4 °F 5.9 °F 82% 30.29 in 1.5 mi West 6.9 mph - N/A Snow Light Snow
10:12 AM 10.4 °F 0.8 °F 5.5 °F 81% 30.30 in 3.0 mi West 5.8 mph - N/A Snow Light Snow
10:32 AM 10.4 °F -0.4 °F 5.2 °F 79% 30.32 in 1.5 mi West 6.9 mph - N/A Snow Light Snow
10:52 AM 10.4 °F -1.5 °F 4.8 °F 78% 30.32 in 2.5 mi West 8.1 mph - N/A Snow Light Snow
11:12 AM 10.4 °F 0.8 °F 4.8 °F 78% 30.32 in 3.0 mi WSW 5.8 mph - N/A Snow Light Snow
11:32 AM 10.9 °F 2.9 °F 5.4 °F 78% 30.32 in 2.0 mi WSW 4.6 mph - N/A Snow Light Snow
11:53 AM 10.9 °F 0.2 °F 4.8 °F 76% 30.31 in 2.5 mi West 6.9 mph - N/A Snow Light Snow
12:13 PM 11.1 °F 1.7 °F 4.8 °F 76% 30.31 in 3.0 mi West 5.8 mph - N/A Snow Light Snow
12:33 PM 11.3 °F 3.3 °F 5.0 °F 76% 30.31 in 3.0 mi West 4.6 mph - N/A Snow Light Snow
12:53 PM 11.5 °F 0.9 °F 5.5 °F 77% 30.30 in 1.8 mi WSW 6.9 mph - N/A Snow Light Snow
1:13 PM 11.5 °F 2.1 °F 5.0 °F 75% 30.30 in 4.0 mi West 5.8 mph - N/A Snow Light Snow
1:33 PM 11.7 °F 3.7 °F 4.8 °F 74% 30.30 in 10.0 mi West 4.6 mph - N/A   Overcast
1:53 PM 12.2 °F 2.9 °F 6.8 °F 79% 30.30 in 1.2 mi West 5.8 mph - N/A Snow Light Snow
2:14 PM 12.2 °F 0.7 °F 6.6 °F 78% 30.31 in 2.0 mi WNW 8.1 mph - N/A Snow Light Snow
2:34 PM 12.4 °F 0.9 °F 6.1 °F 76% 30.31 in 3.0 mi WSW 8.1 mph - N/A Snow Light Snow
2:54 PM 12.2 °F 1.7 °F 6.1 °F 76% 30.31 in 4.0 mi West 6.9 mph - N/A Snow Light Snow
3:14 PM 12.2 °F 0.7 °F 6.6 °F 78% 30.32 in 2.5 mi West 8.1 mph - N/A Snow Light Snow
3:34 PM 12.0 °F 0.5 °F 6.3 °F 78% 30.33 in 4.0 mi West 8.1 mph - N/A Snow Light Snow
3:54 PM 12.2 °F 4.3 °F 7.0 °F 80% 30.33 in 1.8 mi West 4.6 mph - N/A Snow Light Snow
4:14 PM 12.2 °F -0.2 °F 6.8 °F 79% 30.34 in 2.5 mi West 9.2 mph - N/A Snow Light Snow
4:35 PM 12.2 °F -0.2 °F 6.6 °F 78% 30.35 in 7.0 mi West 9.2 mph - N/A Snow Light Snow
4:55 PM 12.6 °F 3.4 °F 7.0 °F 78% 30.35 in 5.0 mi WSW 5.8 mph - N/A Snow Light Snow
5:15 PM 12.7 °F 5.0 °F 7.5 °F 80% 30.35 in 2.5 mi WSW 4.6 mph - N/A Snow Light Snow
5:35 PM 13.1 °F 5.4 °F 7.7 °F 79% 30.36 in 5.0 mi WSW 4.6 mph - N/A Snow Light Snow
5:55 PM 13.1 °F 2.8 °F 7.2 °F 77% 30.37 in 10.0 mi West 6.9 mph - N/A Snow Light Snow
6:15 PM 13.5 °F 1.3 °F 7.7 °F 78% 30.38 in 10.0 mi West 9.2 mph - N/A Snow Light Snow
6:35 PM 13.8 °F 6.2 °F 7.7 °F 77% 30.39 in 10.0 mi West 4.6 mph - N/A Snow Light Snow
6:55 PM 13.8 °F 1.8 °F 7.7 °F 77% 30.39 in 10.0 mi WNW 9.2 mph - N/A   Overcast
7:15 PM 13.8 °F 2.7 °F 7.7 °F 77% 30.40 in 10.0 mi West 8.1 mph - N/A   Overcast
7:35 PM 13.8 °F 6.2 °F 8.1 °F 78% 30.41 in 10.0 mi WNW 4.6 mph - N/A Snow Light Snow
7:55 PM 13.8 °F 2.7 °F 7.9 °F 77% 30.41 in 10.0 mi West 8.1 mph - N/A Snow Light Snow
8:16 PM 13.8 °F 6.2 °F 7.7 °F 77% 30.41 in 10.0 mi West 4.6 mph - N/A Snow Light Snow
8:36 PM 14.0 °F 6.5 °F 7.7 °F 76% 30.42 in 10.0 mi WNW 4.6 mph - N/A   Overcast
8:56 PM 13.8 °F 4.9 °F 7.5 °F 76% 30.43 in 10.0 mi WNW 5.8 mph - N/A   Overcast
9:16 PM 14.0 °F 3.9 °F 7.3 °F 75% 30.43 in 10.0 mi WNW 6.9 mph - N/A   Overcast
9:36 PM 13.8 °F 6.2 °F 6.8 °F 74% 30.43 in 10.0 mi WNW 4.6 mph - N/A   Overcast
9:51 PM 13.8 °F - 6.8 °F 74% 30.44 in 10.0 mi Calm Calm - N/A   Overcast
10:11 PM 13.8 °F - 7.3 °F 75% 30.44 in 10.0 mi Calm Calm - N/A   Overcast
10:32 PM 13.6 °F - 7.7 °F 77% 30.45 in 10.0 mi Calm Calm - N/A   Overcast
10:52 PM 13.3 °F - 8.1 °F 80% 30.45 in 10.0 mi Calm Calm - N/A   Overcast
11:12 PM 14.0 °F - 7.7 °F 76% 30.46 in 10.0 mi Calm Calm - N/A   Overcast
11:32 PM 13.5 °F - 7.9 °F 78% 30.45 in 10.0 mi Calm Calm - N/A   Overcast
11:52 PM 12.7 °F - 7.9 °F 81% 30.45 in 10.0 mi Calm Calm - N/A   Overcast